BEL5VA LIEO-EBBR

Flight info

Callsign BEL5VA
Flight time 1h 43m
Altitude 36000
Route OLBEK DCT IBROS DCT TOBGA DCT EVROG DCT TONDA DCT CERVI DCT VADEM DCT GILIR DCT PENDU DCT IXILU DCT EPL DCT ROUSY M624 DIK Y37 BATTY
Aircraft A320/M-DE3FGHIJ1LORVWY/H

Departure

Time 2026-05-07 09:27
Airport Olbia Costa Smeralda Airport (LIEO)

Arrival

Time 2026-05-07 11:11
Airport Brussels Airport (EBBR)
Time Latitude Longitude Altitude Speed Heading
2026-05-07 08:49 40.90202 9.51573 34 ft 0 kts 325°
2026-05-07 09:18 40.90193 9.51581 34 ft 4 kts 322°
2026-05-07 09:19 40.90174 9.51605 34 ft 4 kts 307°
2026-05-07 09:19 40.90162 9.51634 33 ft 4 kts 270°
2026-05-07 09:19 40.90164 9.51653 32 ft 0 kts 236°
2026-05-07 09:22 40.90147 9.51620 33 ft 8 kts 236°
2026-05-07 09:22 40.90108 9.51544 34 ft 10 kts 235°
2026-05-07 09:22 40.90068 9.51481 34 ft 9 kts 204°
2026-05-07 09:22 40.90002 9.51514 34 ft 10 kts 165°
2026-05-07 09:23 40.89941 9.51495 34 ft 8 kts 209°
2026-05-07 09:23 40.89896 9.51428 34 ft 13 kts 234°
2026-05-07 09:23 40.89831 9.51304 34 ft 17 kts 235°
2026-05-07 09:23 40.89767 9.51182 34 ft 15 kts 235°
2026-05-07 09:24 40.89710 9.51074 34 ft 15 kts 235°
2026-05-07 09:24 40.89645 9.50949 33 ft 17 kts 235°
2026-05-07 09:24 40.89582 9.50830 34 ft 15 kts 235°
2026-05-07 09:24 40.89519 9.50711 34 ft 18 kts 235°
2026-05-07 09:25 40.89449 9.50577 34 ft 18 kts 236°
2026-05-07 09:25 40.89392 9.50468 34 ft 12 kts 231°
2026-05-07 09:25 40.89322 9.50442 34 ft 10 kts 173°
2026-05-07 09:25 40.89278 9.50517 33 ft 11 kts 104°
2026-05-07 09:26 40.89267 9.50605 35 ft 10 kts 83°
2026-05-07 09:26 40.89336 9.50749 33 ft 39 kts 55°
2026-05-07 09:26 40.89624 9.51298 34 ft 105 kts 56°
2026-05-07 09:26 40.90158 9.52320 38 ft 159 kts 55°
2026-05-07 09:27 40.90783 9.53559 594 ft 161 kts 57°
2026-05-07 09:27 40.91412 9.54792 1282 ft 163 kts 54°
2026-05-07 09:27 40.92873 9.57526 2048 ft 202 kts 54°
2026-05-07 09:28 40.93745 9.59138 2329 ft 228 kts 54°
2026-05-07 09:28 40.94682 9.60902 2966 ft 239 kts 54°
2026-05-07 09:28 40.95331 9.62126 3495 ft 242 kts 54°
2026-05-07 09:28 40.96629 9.64566 4580 ft 247 kts 54°
2026-05-07 09:29 40.97626 9.66446 5361 ft 252 kts 54°
2026-05-07 09:29 40.98810 9.68164 6128 ft 257 kts 37°
2026-05-07 09:29 40.99849 9.69044 6450 ft 270 kts 25°
2026-05-07 09:29 41.01602 9.70086 7042 ft 280 kts 23°
2026-05-07 09:30 41.03390 9.71172 7806 ft 285 kts 23°
2026-05-07 09:30 41.05199 9.72293 8592 ft 290 kts 23°
2026-05-07 09:30 41.07035 9.73445 9374 ft 294 kts 23°
2026-05-07 09:30 41.08898 9.74622 10128 ft 299 kts 22°
2026-05-07 09:31 41.10827 9.75840 10483 ft 319 kts 23°
2026-05-07 09:31 41.12905 9.77145 10685 ft 341 kts 23°
2026-05-07 09:31 41.15088 9.78523 11180 ft 352 kts 23°
2026-05-07 09:31 41.17323 9.79943 11801 ft 359 kts 23°
2026-05-07 09:32 41.19593 9.81385 12468 ft 364 kts 24°
2026-05-07 09:32 41.21893 9.82850 13134 ft 369 kts 24°
2026-05-07 09:32 41.24225 9.84331 13809 ft 373 kts 24°
2026-05-07 09:32 41.26633 9.85647 14389 ft 376 kts 14°
2026-05-07 09:33 41.29169 9.86566 14978 ft 379 kts 12°
2026-05-07 09:33 41.31732 9.87479 15560 ft 383 kts 12°
2026-05-07 09:33 41.34320 9.88407 16148 ft 387 kts 12°
2026-05-07 09:33 41.36934 9.89349 16757 ft 391 kts 12°
2026-05-07 09:34 41.39568 9.90303 17345 ft 394 kts 12°
2026-05-07 09:34 41.42225 9.91266 17928 ft 398 kts 11°
2026-05-07 09:34 41.44875 9.92224 18469 ft 402 kts 11°
2026-05-07 09:34 41.47585 9.93201 18960 ft 405 kts 11°
2026-05-07 09:35 41.50355 9.94203 19456 ft 409 kts 11°
2026-05-07 09:35 41.53080 9.95188 19938 ft 413 kts 11°
2026-05-07 09:35 41.55903 9.96207 20446 ft 417 kts 11°
2026-05-07 09:35 41.58717 9.97227 20948 ft 421 kts 11°
2026-05-07 09:36 41.61515 9.98244 21429 ft 424 kts 11°
2026-05-07 09:36 41.64375 9.99285 21913 ft 428 kts 11°
2026-05-07 09:36 41.67262 10.00337 22387 ft 432 kts 11°
2026-05-07 09:36 41.70177 10.01399 22851 ft 436 kts 11°
2026-05-07 09:37 41.73112 10.02473 23307 ft 439 kts 11°
2026-05-07 09:37 41.76111 10.03567 23743 ft 442 kts
2026-05-07 09:37 41.79085 10.04261 24134 ft 439 kts
2026-05-07 09:37 41.82159 10.04343 24527 ft 435 kts 351°
2026-05-07 09:38 41.85160 10.03903 24910 ft 434 kts 347°
2026-05-07 09:38 41.88155 10.03405 25291 ft 435 kts 347°
2026-05-07 09:38 41.91128 10.02909 25656 ft 437 kts 347°
2026-05-07 09:38 41.94152 10.02407 26021 ft 439 kts 347°
2026-05-07 09:39 41.97232 10.01901 26410 ft 441 kts 347°
2026-05-07 09:39 42.00252 10.01406 26701 ft 444 kts 347°
2026-05-07 09:39 42.03332 10.00905 27026 ft 447 kts 347°
2026-05-07 09:39 42.06428 10.00404 27362 ft 449 kts 347°
2026-05-07 09:40 42.09535 9.99901 27704 ft 451 kts 346°
2026-05-07 09:40 42.12697 9.99388 28034 ft 453 kts 346°
2026-05-07 09:40 42.15834 9.98875 28354 ft 455 kts 346°
2026-05-07 09:40 42.18976 9.98358 28677 ft 457 kts 346°
2026-05-07 09:41 42.22143 9.97834 28951 ft 459 kts 346°
2026-05-07 09:41 42.25279 9.97312 29232 ft 461 kts 346°
2026-05-07 09:41 42.28468 9.96781 29514 ft 463 kts 346°
2026-05-07 09:41 42.31717 9.96237 29798 ft 465 kts 346°
2026-05-07 09:42 42.34931 9.95700 30057 ft 467 kts 346°
2026-05-07 09:42 42.38160 9.95165 30289 ft 468 kts 346°
2026-05-07 09:42 42.41399 9.94631 30514 ft 469 kts 346°
2026-05-07 09:42 42.44646 9.94097 30735 ft 470 kts 346°
2026-05-07 09:43 42.47895 9.93562 30945 ft 471 kts 346°
2026-05-07 09:43 42.51148 9.93024 31230 ft 470 kts 346°
2026-05-07 09:43 42.54388 9.92485 31532 ft 469 kts 346°
2026-05-07 09:43 42.57622 9.91944 31831 ft 467 kts 346°
2026-05-07 09:44 42.60846 9.91404 32171 ft 466 kts 346°
2026-05-07 09:44 42.64056 9.90867 32476 ft 465 kts 346°
2026-05-07 09:44 42.67260 9.90332 32775 ft 463 kts 346°
2026-05-07 09:44 42.70457 9.89797 33066 ft 462 kts 346°
2026-05-07 09:45 42.73606 9.89269 33357 ft 461 kts 346°
2026-05-07 09:45 42.76829 9.88729 33654 ft 460 kts 346°
2026-05-07 09:45 42.79961 9.88206 33945 ft 459 kts 346°
2026-05-07 09:45 42.83130 9.87677 34223 ft 458 kts 345°
2026-05-07 09:46 42.86292 9.87148 34463 ft 458 kts 345°
2026-05-07 09:46 42.89451 9.86620 34695 ft 457 kts 346°
2026-05-07 09:46 42.92609 9.86111 34910 ft 457 kts 346°
2026-05-07 09:46 42.95771 9.85634 35132 ft 457 kts 346°
2026-05-07 09:47 42.98939 9.85178 35330 ft 457 kts 347°
2026-05-07 09:47 43.02106 9.84730 35551 ft 457 kts 347°
2026-05-07 09:47 43.05269 9.84278 35741 ft 457 kts 347°
2026-05-07 09:47 43.08431 9.83825 35924 ft 457 kts 347°
2026-05-07 09:48 43.11595 9.83369 36031 ft 456 kts 347°
2026-05-07 09:48 43.17884 9.82445 36038 ft 453 kts 346°
2026-05-07 09:49 43.24084 9.81175 36036 ft 444 kts 336°
2026-05-07 09:49 43.29624 9.77874 36032 ft 428 kts 321°
2026-05-07 09:50 43.34730 9.73658 36034 ft 429 kts 322°
2026-05-07 09:50 43.39845 9.69442 36036 ft 429 kts 322°
2026-05-07 09:51 43.44960 9.65209 36045 ft 429 kts 322°
2026-05-07 09:51 43.50068 9.60963 36036 ft 429 kts 322°
2026-05-07 09:52 43.55181 9.56711 36026 ft 429 kts 322°
2026-05-07 09:52 43.60299 9.52461 36034 ft 429 kts 322°
2026-05-07 09:53 43.65414 9.48193 36059 ft 430 kts 322°
2026-05-07 09:53 43.70530 9.43911 36056 ft 430 kts 322°
2026-05-07 09:54 43.75647 9.39620 36048 ft 430 kts 322°
2026-05-07 09:54 43.80757 9.35322 36039 ft 430 kts 321°
2026-05-07 09:55 43.85868 9.31021 36065 ft 430 kts 322°
2026-05-07 09:55 43.90982 9.26719 36048 ft 430 kts 322°
2026-05-07 09:56 43.96091 9.22406 36036 ft 430 kts 322°
2026-05-07 09:56 44.01199 9.18074 36031 ft 430 kts 322°
2026-05-07 09:57 44.06313 9.13737 36049 ft 430 kts 322°
2026-05-07 09:57 44.11424 9.09392 36031 ft 431 kts 322°
2026-05-07 09:58 44.16537 9.05033 36032 ft 431 kts 322°
2026-05-07 09:58 44.21648 9.00663 36027 ft 431 kts 322°
2026-05-07 09:59 44.26758 8.96293 36048 ft 431 kts 322°
2026-05-07 09:59 44.31874 8.91920 36012 ft 432 kts 322°
2026-05-07 10:00 44.36997 8.87518 35997 ft 432 kts 322°
2026-05-07 10:00 44.42116 8.83104 35992 ft 432 kts 322°
2026-05-07 10:01 44.47203 8.78707 35991 ft 433 kts 322°
2026-05-07 10:01 44.52327 8.74281 36019 ft 433 kts 322°
2026-05-07 10:02 44.57449 8.69855 36024 ft 432 kts 322°
2026-05-07 10:02 44.62604 8.65393 36025 ft 432 kts 322°
2026-05-07 10:03 44.67721 8.60950 36035 ft 432 kts 322°
2026-05-07 10:03 44.72834 8.56492 36033 ft 433 kts 322°
2026-05-07 10:04 44.77945 8.52017 36023 ft 433 kts 322°
2026-05-07 10:04 44.83020 8.47570 36025 ft 433 kts 322°
2026-05-07 10:05 44.88126 8.43085 36054 ft 432 kts 322°
2026-05-07 10:05 44.93234 8.38595 36043 ft 433 kts 322°
2026-05-07 10:06 44.98342 8.34097 36035 ft 433 kts 322°
2026-05-07 10:06 45.03451 8.29597 36030 ft 433 kts 322°
2026-05-07 10:07 45.08559 8.25081 36025 ft 433 kts 322°
2026-05-07 10:07 45.13698 8.20633 36030 ft 435 kts 325°
2026-05-07 10:08 45.19012 8.16494 36020 ft 436 kts 326°
2026-05-07 10:08 45.24362 8.12438 36023 ft 436 kts 326°
2026-05-07 10:09 45.29685 8.08304 36047 ft 436 kts 326°
2026-05-07 10:09 45.34984 8.04118 36041 ft 436 kts 326°
2026-05-07 10:10 45.40279 7.99919 36033 ft 436 kts 326°
2026-05-07 10:10 45.45577 7.95714 36029 ft 436 kts 326°
2026-05-07 10:11 45.50876 7.91511 36047 ft 436 kts 326°
2026-05-07 10:11 45.56176 7.87307 36031 ft 436 kts 326°
2026-05-07 10:12 45.60582 7.83804 36032 ft 436 kts 326°
2026-05-07 10:12 45.65872 7.79579 36045 ft 435 kts 326°
2026-05-07 10:13 45.71154 7.75352 36072 ft 435 kts 327°
2026-05-07 10:13 45.76427 7.71127 36056 ft 434 kts 326°
2026-05-07 10:14 45.81691 7.66888 36054 ft 434 kts 326°
2026-05-07 10:14 45.86959 7.62644 36065 ft 435 kts 326°
2026-05-07 10:15 45.92224 7.58398 36069 ft 434 kts 326°
2026-05-07 10:15 45.97353 7.53882 36058 ft 429 kts 317°
2026-05-07 10:16 46.01679 7.48039 36045 ft 427 kts 312°
2026-05-07 10:16 46.05947 7.42112 36031 ft 427 kts 313°
2026-05-07 10:17 46.10225 7.36171 36025 ft 427 kts 312°
2026-05-07 10:17 46.14489 7.30226 36033 ft 426 kts 313°
2026-05-07 10:18 46.18755 7.24261 36021 ft 428 kts 313°
2026-05-07 10:18 46.23024 7.18276 36021 ft 428 kts 313°
2026-05-07 10:19 46.27298 7.12273 36024 ft 429 kts 313°
2026-05-07 10:19 46.31569 7.06253 36025 ft 429 kts 313°
2026-05-07 10:20 46.35842 7.00215 36030 ft 429 kts 313°
2026-05-07 10:20 46.40120 6.94162 36026 ft 430 kts 313°
2026-05-07 10:21 46.44400 6.88100 36026 ft 430 kts 313°
2026-05-07 10:21 46.48682 6.82018 36024 ft 430 kts 313°
2026-05-07 10:22 46.52956 6.75932 36025 ft 430 kts 313°
2026-05-07 10:22 46.57226 6.69846 36030 ft 430 kts 313°
2026-05-07 10:23 46.61493 6.63738 36026 ft 430 kts 313°
2026-05-07 10:23 46.65747 6.57623 36030 ft 430 kts 312°
2026-05-07 10:24 46.70000 6.51505 36027 ft 430 kts 313°
2026-05-07 10:24 46.74881 6.46424 36029 ft 436 kts 331°
2026-05-07 10:25 46.80346 6.42551 36064 ft 437 kts 331°
2026-05-07 10:25 46.85816 6.38647 36042 ft 438 kts 331°
2026-05-07 10:26 46.91296 6.34728 36047 ft 439 kts 331°
2026-05-07 10:26 46.96785 6.30804 36050 ft 439 kts 331°
2026-05-07 10:27 47.02275 6.26865 36055 ft 439 kts 331°
2026-05-07 10:27 47.07765 6.22901 36061 ft 440 kts 331°
2026-05-07 10:28 47.13254 6.18940 36058 ft 440 kts 331°
2026-05-07 10:28 47.18710 6.14997 36058 ft 440 kts 331°
2026-05-07 10:29 47.24204 6.11041 36070 ft 439 kts 332°
2026-05-07 10:29 47.29686 6.07073 36064 ft 439 kts 331°
2026-05-07 10:30 47.35456 6.03913 36060 ft 444 kts 347°
2026-05-07 10:30 47.38531 6.03367 36057 ft 447 kts 356°
2026-05-07 10:30 47.44760 6.03464 36066 ft 448 kts 359°
2026-05-07 10:31 47.51002 6.03630 36066 ft 449 kts 358°
2026-05-07 10:31 47.57251 6.03777 36068 ft 449 kts 358°
2026-05-07 10:32 47.63494 6.03911 36062 ft 449 kts 358°
2026-05-07 10:32 47.69700 6.04048 36072 ft 449 kts 359°
2026-05-07 10:33 47.75979 6.04188 36069 ft 448 kts 359°
2026-05-07 10:33 47.82216 6.04377 36062 ft 448 kts 359°
2026-05-07 10:34 47.88450 6.04596 36065 ft 448 kts 359°
2026-05-07 10:34 47.94644 6.04796 36065 ft 448 kts 359°
2026-05-07 10:35 48.00877 6.04985 36065 ft 448 kts 359°
2026-05-07 10:35 48.07116 6.05176 36070 ft 448 kts 359°
2026-05-07 10:36 48.13351 6.05367 36065 ft 448 kts 359°
2026-05-07 10:36 48.19582 6.05563 36064 ft 448 kts 359°
2026-05-07 10:37 48.25818 6.05758 36055 ft 448 kts 359°
2026-05-07 10:37 48.32048 6.05956 36060 ft 448 kts 359°
2026-05-07 10:38 48.38278 6.06213 36065 ft 448 kts
2026-05-07 10:38 48.44503 6.06523 36061 ft 448 kts
2026-05-07 10:39 48.50716 6.06837 36064 ft 448 kts
2026-05-07 10:39 48.56941 6.07138 36061 ft 447 kts
2026-05-07 10:40 48.63157 6.07430 36060 ft 447 kts
2026-05-07 10:40 48.69374 6.07718 36055 ft 447 kts
2026-05-07 10:41 48.75583 6.08026 36054 ft 446 kts
2026-05-07 10:41 48.81783 6.08327 36047 ft 446 kts
2026-05-07 10:42 48.87992 6.08623 36043 ft 446 kts
2026-05-07 10:42 48.94190 6.08917 36033 ft 446 kts
2026-05-07 10:43 49.00394 6.09217 36043 ft 446 kts
2026-05-07 10:43 49.06600 6.09514 36037 ft 446 kts
2026-05-07 10:44 49.12811 6.09797 36041 ft 446 kts
2026-05-07 10:44 49.19019 6.10105 36046 ft 447 kts
2026-05-07 10:45 49.25232 6.10413 36041 ft 447 kts
2026-05-07 10:45 49.31443 6.10716 36045 ft 447 kts
2026-05-07 10:46 49.37658 6.11016 36047 ft 447 kts
2026-05-07 10:46 49.43869 6.11317 36057 ft 447 kts
2026-05-07 10:47 49.50085 6.11610 36058 ft 447 kts
2026-05-07 10:47 49.56299 6.11856 36060 ft 447 kts 360°
2026-05-07 10:48 49.62508 6.12075 36066 ft 447 kts
2026-05-07 10:48 49.68685 6.12307 35895 ft 447 kts
2026-05-07 10:49 49.71795 6.12433 35644 ft 446 kts
2026-05-07 10:49 49.74896 6.12558 35005 ft 448 kts
2026-05-07 10:49 49.78026 6.12681 34145 ft 451 kts
2026-05-07 10:49 49.81169 6.12801 33168 ft 453 kts
2026-05-07 10:50 49.84291 6.12901 32669 ft 444 kts 358°
2026-05-07 10:50 49.87341 6.12510 32075 ft 437 kts 349°
2026-05-07 10:50 49.90292 6.11516 31510 ft 432 kts 346°
2026-05-07 10:50 49.93205 6.10472 30948 ft 427 kts 346°
2026-05-07 10:51 49.96087 6.09457 30398 ft 423 kts 347°
2026-05-07 10:51 49.98942 6.08463 29823 ft 419 kts 347°
2026-05-07 10:51 50.01774 6.07478 29254 ft 414 kts 347°
2026-05-07 10:51 50.04564 6.06502 28751 ft 409 kts 346°
2026-05-07 10:52 50.07325 6.05531 28225 ft 405 kts 346°
2026-05-07 10:52 50.10057 6.04567 27716 ft 400 kts 346°
2026-05-07 10:52 50.12760 6.03607 27217 ft 396 kts 346°
2026-05-07 10:52 50.15429 6.02655 26738 ft 392 kts 346°
2026-05-07 10:53 50.18082 6.01708 26247 ft 389 kts 346°
2026-05-07 10:53 50.20705 6.00774 25786 ft 385 kts 346°
2026-05-07 10:53 50.23310 5.99847 25331 ft 382 kts 346°
2026-05-07 10:53 50.25891 5.98927 24884 ft 379 kts 346°
2026-05-07 10:54 50.28453 5.98011 24446 ft 376 kts 346°
2026-05-07 10:54 50.30996 5.97103 23998 ft 374 kts 346°
2026-05-07 10:54 50.33530 5.96200 23542 ft 372 kts 346°
2026-05-07 10:54 50.36044 5.95304 23053 ft 369 kts 346°
2026-05-07 10:55 50.38534 5.94416 22612 ft 365 kts 346°
2026-05-07 10:55 50.40165 5.93831 22320 ft 362 kts 346°
2026-05-07 10:55 50.42610 5.92950 21875 ft 359 kts 346°
2026-05-07 10:55 50.45038 5.92074 21435 ft 356 kts 345°
2026-05-07 10:56 50.47446 5.91202 20988 ft 354 kts 345°
2026-05-07 10:56 50.49842 5.90338 20539 ft 352 kts 346°
2026-05-07 10:56 50.52225 5.89481 20091 ft 351 kts 346°
2026-05-07 10:56 50.54595 5.88626 19644 ft 349 kts 346°
2026-05-07 10:57 50.56961 5.87773 19202 ft 349 kts 346°
2026-05-07 10:57 50.59328 5.86919 18751 ft 349 kts 346°
2026-05-07 10:57 50.61661 5.85891 18297 ft 348 kts 336°
2026-05-07 10:57 50.63780 5.84090 17828 ft 345 kts 323°
2026-05-07 10:58 50.65560 5.81608 17389 ft 341 kts 310°
2026-05-07 10:58 50.66943 5.78582 16954 ft 340 kts 298°
2026-05-07 10:58 50.68018 5.75277 16522 ft 339 kts 296°
2026-05-07 10:58 50.69076 5.71972 16102 ft 336 kts 296°
2026-05-07 10:59 50.70128 5.68691 15680 ft 334 kts 296°
2026-05-07 10:59 50.71176 5.65436 15258 ft 332 kts 296°
2026-05-07 10:59 50.72219 5.62198 14845 ft 330 kts 296°
2026-05-07 10:59 50.73251 5.58975 14427 ft 328 kts 296°
2026-05-07 11:00 50.74274 5.55768 14012 ft 326 kts 296°
2026-05-07 11:00 50.75291 5.52575 13571 ft 325 kts 295°
2026-05-07 11:00 50.76311 5.49377 13131 ft 327 kts 296°
2026-05-07 11:00 50.77337 5.46167 12688 ft 326 kts 296°
2026-05-07 11:01 50.78351 5.42986 12265 ft 323 kts 296°
2026-05-07 11:01 50.79354 5.39833 11835 ft 320 kts 296°
2026-05-07 11:01 50.80344 5.36709 11412 ft 317 kts 296°
2026-05-07 11:01 50.81325 5.33599 10974 ft 315 kts 296°
2026-05-07 11:02 50.82297 5.30519 10544 ft 312 kts 296°
2026-05-07 11:02 50.83264 5.27460 10246 ft 306 kts 296°
2026-05-07 11:02 50.84195 5.24513 10122 ft 294 kts 296°
2026-05-07 11:02 50.85099 5.21648 9859 ft 288 kts 296°
2026-05-07 11:03 50.85988 5.18823 9530 ft 288 kts 296°
2026-05-07 11:03 50.86875 5.15990 9106 ft 286 kts 296°
2026-05-07 11:03 50.87777 5.13194 8612 ft 284 kts 301°
2026-05-07 11:03 50.88824 5.10585 8036 ft 277 kts 302°
2026-05-07 11:04 50.89853 5.08037 7563 ft 273 kts 302°
2026-05-07 11:04 50.90869 5.05517 7103 ft 270 kts 302°
2026-05-07 11:04 50.91877 5.03012 6633 ft 269 kts 302°
2026-05-07 11:04 50.92879 5.00521 6166 ft 267 kts 302°
2026-05-07 11:05 50.93881 4.98023 5699 ft 269 kts 302°
2026-05-07 11:05 50.94882 4.95519 5324 ft 269 kts 303°
2026-05-07 11:05 50.95867 4.93054 5155 ft 260 kts 303°
2026-05-07 11:05 50.96812 4.90687 5020 ft 248 kts 302°
2026-05-07 11:06 50.97451 4.88209 4832 ft 241 kts 280°
2026-05-07 11:06 50.97449 4.85594 4566 ft 238 kts 258°
2026-05-07 11:06 50.96933 4.83111 4256 ft 235 kts 251°
2026-05-07 11:06 50.96381 4.80693 3935 ft 231 kts 251°
2026-05-07 11:07 50.95837 4.78299 3626 ft 231 kts 251°
2026-05-07 11:07 50.95298 4.75930 3318 ft 224 kts 251°
2026-05-07 11:07 50.94780 4.73660 3010 ft 214 kts 250°
2026-05-07 11:07 50.94282 4.71475 2736 ft 207 kts 251°
2026-05-07 11:08 50.93803 4.69380 2485 ft 200 kts 250°
2026-05-07 11:08 50.93335 4.67329 2196 ft 196 kts 250°
2026-05-07 11:08 50.92878 4.65332 1926 ft 189 kts 250°
2026-05-07 11:08 50.92445 4.63444 1679 ft 176 kts 250°
2026-05-07 11:09 50.92035 4.61655 1444 ft 169 kts 250°
2026-05-07 11:09 50.91657 4.60005 1234 ft 153 kts 250°
2026-05-07 11:09 50.91303 4.58465 1023 ft 146 kts 250°
2026-05-07 11:09 50.90959 4.56966 823 ft 144 kts 250°
2026-05-07 11:10 50.90619 4.55480 635 ft 143 kts 251°
2026-05-07 11:10 50.90281 4.54005 434 ft 143 kts 250°
2026-05-07 11:10 50.89943 4.52524 251 ft 143 kts 251°
2026-05-07 11:10 50.89620 4.51092 175 ft 125 kts 248°
2026-05-07 11:11 50.89404 4.50204 176 ft 43 kts 251°
2026-05-07 11:11 50.89334 4.49885 177 ft 20 kts 256°
2026-05-07 11:11 50.89352 4.49711 175 ft 11 kts 297°
2026-05-07 11:11 50.89403 4.49602 169 ft 13 kts 307°
2026-05-07 11:12 50.89461 4.49480 165 ft 15 kts 307°
2026-05-07 11:12 50.89528 4.49341 162 ft 17 kts 305°
2026-05-07 11:12 50.89607 4.49176 155 ft 18 kts 308°
2026-05-07 11:12 50.89727 4.49179 147 ft 21 kts 13°
2026-05-07 11:13 50.89887 4.49244 138 ft 27 kts 15°
2026-05-07 11:13 50.90075 4.49320 131 ft 23 kts 14°
2026-05-07 11:13 50.90220 4.49379 125 ft 22 kts 14°
2026-05-07 11:13 50.90322 4.49388 121 ft 15 kts 326°
2026-05-07 11:14 50.90414 4.49302 121 ft 17 kts 335°
2026-05-07 11:14 50.90529 4.49219 120 ft 19 kts 335°
2026-05-07 11:14 50.90639 4.49130 120 ft 16 kts 311°
2026-05-07 11:14 50.90613 4.48965 119 ft 16 kts 245°
2026-05-07 11:15 50.90568 4.48809 119 ft 16 kts 246°
2026-05-07 11:15 50.90522 4.48648 119 ft 15 kts 245°
2026-05-07 11:15 50.90498 4.48566 117 ft 7 kts 245°
2026-05-07 11:15 50.90462 4.48556 121 ft 6 kts 158°
2026-05-07 11:16 50.90425 4.48582 118 ft 6 kts 155°
2026-05-07 11:16 50.90407 4.48595 119 ft 1 kts 155°
2026-05-07 11:16 50.90404 4.48597 120 ft 0 kts 155°